Regional Weather Roundup
Issued by NWS Jackson, KY

Home | Current Version | Previous Version | Graphics & Text | Print | Product List | Glossary On
Versions: 1 2 3 4 5 6 7 8 9 10 11 12 13 14 15 16 17 18 19 20 21 22 23 24 25 26 27 28 29 30 31 32 33 34 35 36 37 38 39 40 41 42 43 44 45 46 47 48 49 50
000
ASUS43 KJKL 180510
RWRJKL

EAST KENTUCKY HOURLY WEATHER ROUNDUP
NATIONAL WEATHER SERVICE JACKSON KY
100 AM EDT SAT APR 18 2015

NOTE: "FAIR" INDICATES FEW OR NO CLOUDS BELOW 12,000 FEET WITH
NO SIGNIFICANT WEATHER AND/OR OBSTRUCTIONS TO VISIBILITY.

* THESE REPORTS ARE NOT UNDER NWS QUALITY CONTROL AND MAY NOT
  REPORT WEATHER SUCH AS PRECIPITATION AND FOG.

KYZ079-080-083-085-087-088-110-112-115-119-120-180600
...EASTERN KENTUCKY...

CITY           SKY/WX    TMP DP  RH WIND       PRES   REMARKS
JACKSON        PTCLDY    63  55  75 NE3       30.04F
LONDON         PTCLDY    59  54  83 CALM      30.03F
SOMERSET*      MOCLDY    55  55 100 CALM      30.03F
MONTICELLO*    PTCLDY    56  56 100 NW3       30.06F
MIDDLESBORO*   PTCLDY    58  57  99 CALM      30.03F
HARLAN APT*    PTCLDY    61  59  94 CALM      30.04F
HAZARD APT*    CLEAR     59  57  94 CALM      30.03F
BLACK MTN*       N/A     55  52  88 N5          N/A
PIKEVILLE APT* CLEAR     64  54  68 N3        30.04F
BIG SANDY*     PTCLDY    64  56  74 CALM      30.04S
MOREHEAD APT*  PTCLDY    63  57  82 CALM      30.06S
$$

KYZ035-036-041-042-044-050-067-078-099-180600
...CENTRAL KENTUCKY...

CITY           SKY/WX    TMP DP  RH WIND       PRES   REMARKS
MT STERLING*   MOCLDY    57  57 100 CALM      30.04F
FLEMING/MASON* CLEAR     61  54  77 N3        30.05
DANVILLE*      PTCLDY    55  54  94 CALM      30.04F
RICHMOND*      PTCLDY    59  55  88 CALM      30.03S
LEXINGTON      MOCLDY    60  56  86 E3        30.02F
FRANKFORT      PTCLDY    56  54  93 CALM      30.01F
$$

KYZ091>093-OHZ055-061-077-WVZ005-015-034-035-042-180600
...SOUTHERN OHIO/WEST VIRGINIA...

CITY           SKY/WX    TMP DP  RH WIND       PRES   REMARKS
COVINGTON      PTCLDY    61  48  62 CALM      30.03F
COLUMBUS       MOCLDY    58  43  57 CALM      30.04F
DAYTON         PTCLDY    59  42  53 CALM      30.05F
WILMINGTON     PTCLDY    54  46  74 CALM      30.05S
HUNTINGTON       N/A     62  51  67 CALM      30.02F
CHARLESTON     PTCLDY    60  55  83 CALM      30.03S
PINEVILLE*     MOCLDY    55  55  97 MISG      30.10F
BECKLEY        MOCLDY    57  50  77 CALM      30.08S
BLUEFIELD      MOCLDY    64  49  57 N3        30.09S
$$

VAZ002-007-008-TNZ017-027-036-066-071-180600
...SOUTHWEST VIRGINIA/EAST TENNESSEE...

CITY           SKY/WX    TMP DP  RH WIND       PRES   REMARKS
WISE*          PTCLDY    59  50  72 N5        30.09S
JONESVILLE*    PTCLDY    57  57 100 CALM      30.06S
ABINGDON*      CLOUDY    61  58  90 CALM      30.06S
BRISTOL        MOCLDY    59  57  93 CALM      30.05S
KNOXVILLE      CLOUDY    62  60  93 CALM      30.01F
OAK RIDGE      MOCLDY    61  58  90 CALM      30.04S
CROSSVILLE     PTCLDY    57  55  93 CALM      30.07R
NASHVILLE      MOCLDY    61  59  93 CALM      30.05R
$$

...KEY TO REMARKS...
VSB - VISIBILITY IN MILES
WCI - WIND CHILL INDEX
HX  - HEAT INDEX

$$



USA.gov is the U.S. government's official web portal to all federal, state and local government web resources and services.